AirNav   Everest Fuels
 
 1471 users online  

0IN6 Morrison Flight Park
Linton, Indiana, USA

GOING TO LINTON?


FAA INFORMATION EFFECTIVE 16 JULY 2020

Location

FAA Identifier: 0IN6
Lat/Long: 39-01-18.2000N 087-11-13.4000W
39-01.303333N 087-11.223333W
39.0217222,-87.1870556
(estimated)
Elevation: 520 ft. / 158 m (estimated)
Variation: 02W (1995)
From city: 2 miles SW of LINTON, IN
Time zone: UTC -4 (UTC -5 during Standard Time)
Zip code: 47441

Ultralight Flight Park Operations

Ultralight Flight Park use: Private use. Permission required prior to landing
Activation date: 05/1999
Control tower: no
ARTCC: INDIANAPOLIS CENTER
FSS: TERRE HAUTE FLIGHT SERVICE STATION
Attendance: UNATNDD
Wind indicator: yes
Segmented circle: no

Ultralight Flight Park Communications

WX AWOS-3PT at DCY (19 nm S): 124.1 (812-257-8889)

Nearby radio navigation aids

VOR radial/distance  VOR name  Freq  Var
OOMr257/27.7HOOSIER VORTAC110.2002W
TTHr172/28.2TERRE HAUTE VORTAC115.3002E

 
NDB name  Hdg/Dist  Freq  Var  ID
PALESTINE092/21.239103WPLX .--. .-.. -..-

Ultralight Flight Park Services

Runway Information

Runway 18U/36U

Dimensions: 1225 x 70 ft. / 373 x 21 m
Surface: turf, in good condition
RUNWAY 18U  RUNWAY 36U
Latitude: 39-01.404000N39-01.202167N
Longitude: 087-11.227333W087-11.220500W
Traffic pattern: leftleft
Displaced threshold: no225 ft.
RY 36 DSPLCD THLD MKD WITH 2 YELLOW TIRES ON EACH SIDE OF RY.
Obstructions: none15 ft. road, 10 ft. from runway
RWY 36U APP SLOPE TO DSPLCD T-HOLD 15:1.

Ultralight Flight Park Ownership and Management from official FAA records

Ownership: Privately-owned
Owner: LESTER W. MORRISON
13062 W 25 S
LINTON, IN 04741
Phone 812-847-2321
Manager: LESTER W. MORRISON
13062 W 25 S
LINTON, IN 47441
Phone 812-847-2321

Ultralight Flight Park Operational Statistics

Aircraft based on the field: 2
Ultralights: 2
    
Aircraft operations: avg 35/month *
90% local general aviation
10% transient general aviation
* for 12-month period ending 31 December 2003

Additional Remarks

400 FT TOWER 900 FT NW OF RY 36 & 390 FT TOWER 1/2 MILE ENE OF RY 36.
FOR CD CTC HULMAN APCH AT 812-877-7581.

Instrument Procedures

There are no published instrument procedures at 0IN6.

Some nearby airports with instrument procedures:

KSIV - Sullivan County Airport (13 nm NW)
KDCY - Daviess County Airport (19 nm S)
KRSV - Crawford County Airport (22 nm W)
KLWV - Lawrenceville-Vincennes International Airport (25 nm SW)
KHUF - Terre Haute Regional Airport (26 nm N)
 
Loc | Ops | Rwys | IFR | FBO | Links
Com | Nav | Svcs | Stats | Notes
Area around 0IN6 (Morrison Flight Park)
 
Road maps at: MapQuest Bing Google
 
Aerial photo
WARNING: Photo may not be current or correct
Aerial photo of 0IN6 (Morrison Flight Park)
Do you have a better or more recent aerial photo of Morrison Flight Park that you would like to share? If so, please send us your photo.

 
Sectional chart

 
Airport distance calculator
Flying to Morrison Flight Park? Find the distance to fly.

From to 0IN6

Sunrise and sunset
Times for 16-Jul-2020
 Local
(UTC-4)
 Zulu
(UTC)
Morning civil twilight06:0710:07
Sunrise06:3810:38
Sunset21:1201:12
Evening civil twilight21:4301:43

Current date and time
Zulu (UTC)  16-Jul-2020 16:45:43
Local (UTC-4)  16-Jul-2020 12:45:43
 
METAR
KDCY 
19nm S 
161635Z AUTO 31005KT 10SM OVC012 22/21 A3010 RMK AO2 T02240212
KRSV 
22nm W 
161635Z AUTO 00000KT 10SM OVC017 23/20 A3010 RMK AO2 T02280204
KLWV 
25nm SW 
161620Z AUTO VRB03KT 10SM OVC016 24/20 A3009 RMK AO2 T02390200
KHUF 
27nm N 
161610Z 28006KT 10SM OVC016 24/21 A3006 RMK AO2 T02390211
KBMG 
28nm E 
161553Z VRB03KT 10SM OVC010 23/19 A3007 RMK AO2 SLP176 T02280194
KAJG 
35nm SW 
161635Z AUTO 34003KT 10SM OVC018 24/19 A3010 RMK AO2 T02350191
TAF
KHUF 
27nm N 
161125Z 1612/1712 27010KT P6SM OVC007 FM161600 28009KT P6SM SCT010 BKN020 FM162000 29006KT P6SM SCT035 FM170100 VRB03KT P6SM SCT200
KBMG 
28nm E 
161346Z 1614/1712 28010G16KT P6SM OVC007 FM161700 27008KT P6SM SCT015 BKN025 FM162000 27007KT P6SM BKN035 FM170000 VRB03KT P6SM SCT200
NOTAMs
Click for the latest NOTAMs
NOTAMs are issued by the DoD/FAA and will open in a separate window not controlled by AirNav.

 

 
 

Would you like to see your business listed on this page?

 If your business provides an interesting product or service to pilots, flight crews, aircraft, or users of the Morrison Flight Park, you should consider listing it here.  To start the listing process, click on the button below
 
Add a business
 

Other Pages about Morrison Flight Park

flightpark4u8.homestead.com
 
Update a link
 
Copyright © AirNav, LLC. All rights reserved. Privacy Policy  Contact